This demonstration page uses our WeatherBlox Daily Observations layout. Learn more.

Left ArrowRight Arrow

Hourly Observations for August 4, 2021

Temp ( °F °C ) Dew Point ( °F °C ) Humidity (%) Winds ( mph kmh ) Pressure ( in mb ) Visibility ( mi km ) Precip ( " mm )
12:51 am 00:51 Clear 80 26.7 59 15 49 49 NE 5 7 29.76 1008 10 16 N/A
1:51 am 01:51 Clear 79 26.1 60 15.6 52 52 N N/A 29.75 1008 10 16 N/A
2:51 am 02:51 Clear 76 24.4 61 16.1 60 60 N N/A 29.77 1008 10 16 N/A
3:51 am 03:51 Clear 80 26.7 55 12.8 42 42 ENE 6 9 29.77 1008 10 16 N/A
4:51 am 04:51 Clear 76 24.4 56 13.3 50 50 SSE 3 6 29.78 1009 10 16 N/A
5:51 am 05:51 Sunny 76 24.4 58 14.4 54 54 E 9 15 29.80 1009 10 16 N/A
6:51 am 06:51 Sunny 81 27.2 57 13.9 44 44 SSE 8 13 29.82 1010 10 16 N/A
7:51 am 07:51 Sunny 85 29.4 57 13.9 39 39 ESE 9 15 29.84 1011 10 16 N/A
8:51 am 08:51 Sunny 89 31.7 59 15 36 36 SE 9 15 29.83 1010 10 16 N/A
9:51 am 09:51 Sunny 91 32.8 61 16.1 37 37 VRB 6 9 29.83 1010 10 16 N/A
10:51 am 10:51 Sunny 93 33.9 61 16.1 34 34 VRB 5 7 29.82 1010 10 16 N/A
11:51 am 11:51 Sunny 94 34.4 61 16.1 33 33 VRB 6 9 29.80 1009 10 16 N/A
12:51 pm 12:51 Sunny 98 36.7 59 15 27 27 S 7 11 29.78 1009 10 16 N/A
1:51 pm 13:51 Sunny 100 37.8 54 12.2 21 21 S 10 17 29.75 1008 10 16 N/A
2:51 pm 14:51 Sunny 101 38.3 54 12.2 21 21 undefined N/A 29.73 1007 10 16 N/A
3:51 pm 15:51 Sunny 102 38.9 53 11.7 19 19 NW 8 13 29.70 1006 10 16 N/A
4:51 pm 16:51 Sunny 101 38.3 54 12.2 21 21 WSW 7 11 29.70 1006 10 16 N/A
5:51 pm 17:51 Sunny 100 37.8 54 12.2 21 21 W 6 9 29.69 1005 10 16 N/A
6:51 pm 18:51 Sunny 99 37.2 53 11.7 21 21 S 3 6 29.69 1005 10 16 N/A
7:51 pm 19:51 Clear 91 32.8 61 16.1 37 37 NE 7 11 29.71 1006 10 16 N/A
8:51 pm 20:51 Clear 88 31.1 59 15 38 38 NE 8 13 29.73 1007 10 16 N/A
9:51 pm 21:51 Clear 86 30 59 15 40 40 ESE 10 17 29.77 1008 10 16 N/A
10:51 pm 22:51 Clear 85 29.4 58 14.4 40 40 S 12 19 29.82 1010 10 16 N/A
11:51 pm 23:51 Clear 81 27.2 57 13.9 44 44 ESE 7 11 29.82 1010 10 16 N/A

Powered by AerisWeather